Location: Gerlach
(40.6516°N, 119.3568°W)
Time: 09:38:00
(UTC-08:00)

Tiros 1 - Visible Passes

Search period start: 07 February 2023 00:00
Search period end: 17 February 2023 00:00
Orbit: 629 x 662 km, 48.4° (Epoch: 06 February)

Date Brightness Start Highest point End Pass type
(mag) Time Alt. Az. Time Alt. Az. Time Alt. Az.
07 Feb 8.8 04:14:48 29° ESE 04:14:48 29° ESE 04:17:10 10° ESE visible
07 Feb 8.5 05:52:27 18° WSW 05:54:14 22° SW 05:57:53 10° S visible
08 Feb 8.3 04:39:33 33° SSE 04:39:33 33° SSE 04:42:21 10° SE visible
09 Feb 8.7 05:04:24 21° SSW 05:04:24 21° SSW 05:06:45 10° S visible
11 Feb 9.7 20:00:58 10° SSW 20:01:08 11° SSW 20:01:08 11° SSW visible
12 Feb 9.0 18:46:29 10° SSE 18:48:30 14° SE 18:48:30 14° SE visible
12 Feb 9.8 20:25:45 10° SW 20:26:11 13° SW 20:26:11 13° SW visible
13 Feb 8.0 19:09:45 10° SSW 19:13:29 30° SSE 19:13:29 30° SSE visible
14 Feb 9.1 17:55:41 10° SSE 17:57:32 12° SE 17:59:22 10° ESE visible
14 Feb 7.3 19:34:26 10° SW 19:38:22 58° S 19:38:22 58° S visible
15 Feb 8.2 18:18:34 10° SSW 18:22:29 28° SE 18:25:29 15° E visible
15 Feb 8.0 19:59:47 10° WSW 20:03:08 46° W 20:03:08 46° W visible
16 Feb 7.2 18:43:06 10° SW 18:47:38 60° SE 18:50:10 25° ENE visible
16 Feb 9.1 20:25:33 10° W 20:27:50 26° WNW 20:27:50 26° WNW visible
